When you browse on this site, cookies collect data to enhance your experience and personalize the content and advertising you see.
Visit our Privacy Policy to learn more. By continuing to use the site, you agree to this use of cookies and data.
  • In Hungary
  • List of Countries
  • For 7 days
  • Water Temperature
  • Satellite Maps
  • Weather Map
  • News
  • Weather Widgets
  • user-avatar
    Login

    Hourly Weather Uppsala

    Today, 17 December, Monday

    Time Temperature Precipitation Wind Pressure Humidity
    00:00 -2°C° 0.4 mm 2 mps 761 mmHg 93%
    01:00 -2°C° 0 mm 3 mps 760 mmHg 94%
    02:00 -2°C° 0.2 mm 2 mps 760 mmHg 94%
    03:00 -2°C° 0.2 mm 2 mps 759 mmHg 94%
    04:00 -2°C° 0.2 mm 2 mps 759 mmHg 94%
    05:00 -2°C° 0 mm 2 mps 759 mmHg 95%
    06:00 -3°C° 0 mm 2 mps 760 mmHg 95%
    07:00 -1°C° 0 mm 1 mps 760 mmHg 95%
    08:00 -1°C° 0 mm 1 mps 760 mmHg 95%
    09:00 -1°C° 0 mm 1 mps 760 mmHg 95%
    10:00 -1°C° 0 mm 1 mps 761 mmHg 95%
    11:00 -1°C° 0 mm 1 mps 761 mmHg 94%
    12:00 -1°C° 0 mm 1 mps 761 mmHg 93%
    13:00 0°C° 0 mm 1 mps 762 mmHg 92%
    14:00 0°C° 0 mm 1 mps 762 mmHg 93%
    15:00 -1°C° 0 mm 1 mps 762 mmHg 93%
    16:00 -3°C° 0 mm 2 mps 763 mmHg 93%
    17:00 -3°C° 0 mm 2 mps 763 mmHg 93%
    18:00 -3°C° 0 mm 2 mps 763 mmHg 92%
    19:00 -3°C° 0 mm 2 mps 764 mmHg 92%
    20:00 -3°C° 0 mm 2 mps 764 mmHg 92%
    21:00 -4°C° 0 mm 2 mps 764 mmHg 93%
    22:00 -4°C° 0 mm 2 mps 765 mmHg 94%
    23:00 -4°C° 0 mm 2 mps 765 mmHg 95%

    Tomorrow, 18 December, Tuesday

    Time Temperature Precipitation Wind Pressure Humidity
    00:00 -2°C° 0 mm 1 mps 765 mmHg 95%
    01:00 -3°C° 0 mm 1 mps 765 mmHg 95%
    02:00 -3°C° 0 mm 1 mps 765 mmHg 95%
    03:00 -3°C° 0 mm 1 mps 765 mmHg 95%
    04:00 -3°C° 0 mm 1 mps 765 mmHg 95%
    05:00 -4°C° 0 mm 2 mps 765 mmHg 94%
    06:00 -4°C° 0 mm 2 mps 765 mmHg 94%
    07:00 -4°C° 0 mm 2 mps 765 mmHg 93%
    08:00 -4°C° 0.1 mm 2 mps 766 mmHg 93%
    09:00 -3°C° 0.1 mm 2 mps 766 mmHg 92%
    10:00 -3°C° 0.1 mm 2 mps 766 mmHg 91%
    11:00 -3°C° 0 mm 2 mps 766 mmHg 91%
    12:00 -3°C° 0 mm 2 mps 766 mmHg 91%
    13:00 -2°C° 0 mm 2 mps 766 mmHg 91%
    14:00 -3°C° 0.1 mm 2 mps 766 mmHg 92%
    15:00 -3°C° 0.1 mm 2 mps 766 mmHg 93%
    16:00 -3°C° 0.1 mm 2 mps 766 mmHg 94%
    17:00 -3°C° 0.1 mm 2 mps 766 mmHg 94%
    18:00 -1°C° 0.1 mm 1 mps 766 mmHg 94%
    19:00 -1°C° 0.1 mm 1 mps 766 mmHg 94%
    20:00 -2°C° 0 mm 1 mps 766 mmHg 94%
    21:00 -2°C° 0 mm 1 mps 766 mmHg 94%
    22:00 -2°C° 0 mm 1 mps 767 mmHg 94%
    23:00 -2°C° 0 mm 1 mps 767 mmHg 94%

    Day after tomorrow, 19 December, Wednesday

    Time Temperature Precipitation Wind Pressure Humidity
    00:00 -2°C° 0 mm 1 mps 767 mmHg 94%
    01:00 -3°C° 0 mm 1 mps 767 mmHg 94%
    02:00 -3°C° 0 mm 1 mps 767 mmHg 94%
    03:00 -3°C° 0 mm 1 mps 766 mmHg 94%
    04:00 -3°C° 0 mm 1 mps 766 mmHg 94%
    05:00 -3°C° 0 mm 1 mps 766 mmHg 94%
    06:00 -3°C° 0 mm 1 mps 766 mmHg 94%
    07:00 -3°C° 0 mm 1 mps 766 mmHg 94%
    08:00 -3°C° 0 mm 1 mps 766 mmHg 93%
    09:00 -4°C° 0 mm 2 mps 766 mmHg 93%
    10:00 -4°C° 0 mm 2 mps 766 mmHg 92%
    11:00 -3°C° 0 mm 2 mps 766 mmHg 90%
    12:00 -2°C° 0 mm 2 mps 766 mmHg 88%
    13:00 -1°C° 0 mm 2 mps 765 mmHg 85%
    14:00 -2°C° 0 mm 2 mps 765 mmHg 87%
    15:00 -2°C° 0 mm 2 mps 765 mmHg 88%
    16:00 -2°C° 0 mm 2 mps 765 mmHg 89%
    17:00 -2°C° 0 mm 2 mps 765 mmHg 89%
    18:00 -1°C° 0 mm 3 mps 765 mmHg 89%
    19:00 -1°C° 0 mm 3 mps 765 mmHg 89%
    20:00 -1°C° 0.1 mm 3 mps 764 mmHg 89%
    21:00 -1°C° 0.1 mm 3 mps 764 mmHg 89%
    22:00 -1°C° 0.1 mm 3 mps 764 mmHg 90%
    23:00 0°C° 0.1 mm 3 mps 764 mmHg 91%

    20 December, Thursday

    Time Temperature Precipitation Wind Pressure Humidity
    00:00 -1°C° 0.1 mm 4 mps 764 mmHg 91%
    01:00 -1°C° 0.1 mm 4 mps 764 mmHg 92%
    02:00 -1°C° 0.1 mm 4 mps 764 mmHg 92%
    03:00 -1°C° 0.1 mm 4 mps 764 mmHg 93%
    04:00 -1°C° 0.1 mm 4 mps 764 mmHg 93%
    05:00 -1°C° 0.1 mm 4 mps 763 mmHg 92%
    06:00 -1°C° 0.1 mm 4 mps 763 mmHg 92%
    07:00 -1°C° 0.1 mm 4 mps 763 mmHg 91%
    08:00 -1°C° 0 mm 4 mps 763 mmHg 90%
    09:00 -1°C° 0 mm 4 mps 764 mmHg 89%
    10:00 -1°C° 0 mm 4 mps 764 mmHg 89%
    11:00 -1°C° 0 mm 4 mps 764 mmHg 88%
    12:00 -1°C° 0 mm 4 mps 764 mmHg 88%
    13:00 -1°C° 0 mm 4 mps 763 mmHg 87%
    14:00 -1°C° 0.1 mm 4 mps 763 mmHg 88%
    15:00 -2°C° 0.1 mm 4 mps 763 mmHg 88%
    16:00 -2°C° 0.1 mm 4 mps 763 mmHg 89%
    17:00 -2°C° 0.1 mm 4 mps 763 mmHg 89%
    18:00 -2°C° 0.1 mm 4 mps 763 mmHg 89%
    19:00 -2°C° 0.1 mm 4 mps 763 mmHg 89%
    20:00 -2°C° 0.2 mm 4 mps 763 mmHg 89%
    21:00 -2°C° 0.2 mm 4 mps 763 mmHg 89%
    22:00 -2°C° 0.2 mm 4 mps 763 mmHg 89%
    23:00 -2°C° 0.2 mm 4 mps 763 mmHg 89%

    21 December, Friday

    Time Temperature Precipitation Wind Pressure Humidity
    00:00 -2°C° 0.2 mm 4 mps 762 mmHg 89%
    01:00 -2°C° 0.2 mm 4 mps 762 mmHg 89%
    02:00 -2°C° 0.1 mm 4 mps 762 mmHg 89%
    03:00 -2°C° 0.1 mm 4 mps 762 mmHg 88%
    04:00 -2°C° 0.1 mm 4 mps 761 mmHg 88%
    05:00 -2°C° 0.1 mm 3 mps 761 mmHg 88%
    06:00 -2°C° 0.1 mm 3 mps 761 mmHg 88%
    07:00 -2°C° 0.1 mm 3 mps 761 mmHg 88%
    08:00 -2°C° 0.1 mm 3 mps 761 mmHg 88%
    09:00 -2°C° 0.1 mm 3 mps 761 mmHg 87%
    10:00 -2°C° 0.1 mm 3 mps 760 mmHg 87%
    11:00 -2°C° 0.1 mm 3 mps 760 mmHg 86%
    12:00 -2°C° 0.1 mm 3 mps 760 mmHg 86%
    13:00 -2°C° 0.1 mm 3 mps 760 mmHg 86%
    14:00 -2°C° 0.1 mm 3 mps 759 mmHg 88%
    15:00 -2°C° 0.1 mm 3 mps 759 mmHg 89%
    16:00 -2°C° 0.1 mm 3 mps 759 mmHg 91%
    17:00 -2°C° 0.1 mm 3 mps 759 mmHg 91%
    18:00 -2°C° 0.1 mm 3 mps 758 mmHg 91%
    19:00 -2°C° 0.1 mm 3 mps 758 mmHg 91%
    20:00 -2°C° 0.1 mm 3 mps 758 mmHg 92%
    21:00 -2°C° 0.1 mm 3 mps 758 mmHg 92%
    22:00 -2°C° 0.1 mm 3 mps 757 mmHg 92%
    23:00 -2°C° 0.1 mm 3 mps 757 mmHg 92%

    22 December, Saturday

    Time Temperature Precipitation Wind Pressure Humidity
    00:00 -2°C° 0.1 mm 3 mps 757 mmHg 92%
    01:00 -2°C° 0.1 mm 3 mps 757 mmHg 91%
    02:00 -2°C° 0.1 mm 3 mps 756 mmHg 91%
    03:00 -2°C° 0.1 mm 3 mps 756 mmHg 91%
    04:00 -2°C° 0.1 mm 3 mps 756 mmHg 91%
    05:00 -2°C° 0 mm 3 mps 756 mmHg 91%
    06:00 -2°C° 0 mm 3 mps 756 mmHg 91%
    07:00 -3°C° 0 mm 2 mps 756 mmHg 91%
    08:00 -3°C° 0 mm 2 mps 756 mmHg 91%
    09:00 -3°C° 0 mm 2 mps 756 mmHg 91%
    10:00 -3°C° 0 mm 2 mps 757 mmHg 92%
    11:00 -3°C° 0 mm 2 mps 757 mmHg 91%
    12:00 -3°C° 0 mm 2 mps 757 mmHg 91%
    13:00 -3°C° 0 mm 2 mps 757 mmHg 90%
    14:00 -3°C° 0 mm 2 mps 757 mmHg 92%
    15:00 -4°C° 0 mm 2 mps 757 mmHg 93%
    16:00 -5°C° 0 mm 2 mps 757 mmHg 94%
    17:00 -5°C° 0 mm 2 mps 758 mmHg 95%
    18:00 -3°C° 0 mm 1 mps 758 mmHg 95%
    19:00 -3°C° 0 mm 1 mps 758 mmHg 95%
    20:00 -3°C° 0 mm 1 mps 758 mmHg 95%
    21:00 -3°C° 0 mm 1 mps 758 mmHg 95%
    22:00 -3°C° 0 mm 1 mps 759 mmHg 95%
    23:00 -4°C° 0 mm 1 mps 759 mmHg 95%
    Show more